SCP
0 0 0 0 0 0 0 0 0 1 1 1 1 2 2 3 4 4 3 3 4 4 6 7 6 5 4 4 4 4 4 4 4 4 4 5 4 4 5 5 4 3 3 3
0 0 0 0 0 0 0 0 0 1 1 1 1 1 2 3 3 3 4 4 5 5 6 7 7 7 6 5 4 4 4 4 5 5 5 5 5 5 5 5 4 4 4 4
0 0 0 0 0 0 0 0 0 0 0 0 1 1 2 2 3 3 4 5 6 5 5 5 6 7 7 6 5 4 5 6 6 6 6 6 6 6 5 4 4 4 4 4
0 0 0 0 0 0 0 0 0 0 0 0 0 1 1 1 2 3 4 5 5 5 4 4 4 5 7 7 6 6 6 7 7 6 5 5 5 5 4 4 3 3 3 4
0 0 0 0 0 0 0 0 0 0 0 0 0 1 1 1 2 2 3 4 4 4 5 5 4 5 6 7 7 7 7 7 7 6 5 5 5 4 4 4 3 2 2 2
0 0 0 0 0 0 0 0 0 0 0 0 0 1 1 1 1 2 2 2 3 3 4 4 4 5 6 7 7 6 6 6 6 5 5 5 5 5 4 4 2 1 1 1
0 0 0 0 0 0 0 0 0 0 0 0 0 1 1 1 1 1 2 2 2 2 2 3 3 4 5 6 6 6 6 5 5 5 5 5 5 5 4 3 1 0 0 0
0 0 0 0 0 0 0 0 0 0 0 0 1 1 1 1 1 1 1 1 1 1 2 2 3 3 4 5 5 5 5 5 5 4 4 4 3 3 2 1 0 0 0 0
0 0 0 0 0 0 0 0 0 0 0 0 1 1 1 1 1 1 1 1 1 1 1 1 2 2 3 3 3 4 4 4 4 3 2 2 1 1 1 0 0 0 0 0
0 0 0 0 0 0 0 0 0 0 0 0 1 1 1 1 1 1 1 1 1 1 1 1 1 1 1 2 2 2 2 2 1 1 0 0 0 0 0 0 0 0 0 0
0 0 0 0 0 0 0 0 0 0 0 0 1 1 1 1 1 1 1 1 1 1 1 0 0 0 0 0 0 0 0 0 0 0 0 0 0 0 0 0 0 0 0 0
0 0 0 0 0 0 0 0 0 0 0 0 1 1 1 1 1 1 1 1 1 0 0 0 0 0 0 0 0 0 0 0 0 0 0 0 0 0 0 0 0 0 0 0
0 0 0 0 0 0 0 0 0 0 0 0 1 1 1 1 1 1 1 0 0 0 0 0 0 0 0 0 0 0 0 0 0 0 0 0 0 0 0 0 0 0 0 0
0 0 0 0 0 0 0 1 1 1 1 0 1 1 1 1 1 1 1 0 0 0 0 0 0 0 0 0 0 0 0 0 0 0 0 0 0 0 0 0 0 0 0 0
0 0 0 0 0 0 1 1 1 1 1 1 1 1 1 1 1 1 0 0 0 0 0 0 0 0 0 0 0 0 0 0 0 0 0 0 0 0 0 0 0 0 0 0
0 0 0 0 0 0 1 1 1 1 1 1 1 1 1 1 1 1 0 0 0 0 0 0 0 0 0 0 0 0 0 0 0 0 0 0 0 0 0 0 0 0 0 0
0 0 0 0 0 0 0 0 1 1 1 1 1 1 1 1 1 1 0 0 0 0 0 0 0 0 0 0 0 0 0 0 0 0 0 0 0 0 0 0 0 0 0 0
0 0 0 0 0 0 0 0 0 0 1 1 1 1 1 1 1 0 0 0 0 0 0 0 0 0 0 0 0 0 0 0 0 0 0 0 0 0 0 0 0 0 0 0
0 0 0 0 0 0 0 0 0 0 0 1 1 1 1 1 0 0 0 0 0 0 0 0 0 0 0 0 0 0 0 0 0 0 0 0 0 0 0 0 0 0 0 0
0 0 0 0 0 0 0 0 0 0 0 0 0 0 0 0 0 0 0 0 0 0 0 0 0 0 0 0 0 0 0 0 0 0 0 0 0 0 0 0 0 0 0 0
0 0 0 0 0 0 0 0 0 0 0 0 0 0 0 0 0 0 0 0 0 0 0 0 0 0 0 0 0 0 0 0 0 0 0 0 0 0 0 0 0 0 0 0
0 0 0 0 0 0 0 0 0 0 0 0 0 0 0 0 0 0 0 0 0 0 0 0 0 0 0 0 0 0 0 0 0 0 0 0 0 0 0 0 0 0 0 0
0 0 0 0 0 0 0 0 0 0 0 0 0 0 0 0 0 0 0 0 0 0 0 0 0 0 0 0 0 0 0 0 0 0 0 0 0 0 0 0 0 0 0 0
0 0 0 0 0 0 0 0 0 0 0 0 0 0 0 0 0 0 0 0 0 0 0 0 0 0 0 0 0 0 0 0 0 0 0 0 0 0 0 0 0 0 0 0
0 0 0 0 0 0 0 0 0 0 0 0 0 0 0 0 0 0 0 0 0 0 0 0 0 0 0 0 0 0 0 0 0 0 0 0 0 0 0 0 0 0 0 0
0 0 0 0 0 0 0 0 0 0 0 0 0 0 0 0 0 0 0 0 0 0 0 0 0 0 0 0 0 0 0 0 0 0 0 0 0 0 0 0 0 0 0 0
Wind_Speed
6 9 9 7 8 6 4 5 5 4 3 3 5 4 5 6 6 5 5 5 5 5 5 4 2 4 7 9 10 11 12 12 10 8 9 8 6 5 4 3 2 3 3 3
8 10 5 4 5 7 8 9 7 5 4 3 6 6 7 8 8 8 7 6 6 7 7 6 4 2 4 7 9 10 10 11 10 8 7 6 6 5 4 3 3 1 0 0
10 2 1 6 8 10 10 9 7 5 5 7 8 6 7 8 9 9 10 10 10 9 8 7 6 4 2 3 5 7 9 10 10 10 7 6 5 4 3 3 3 2 2 2
7 4 6 9 9 10 9 7 7 8 10 9 10 7 8 7 8 9 10 10 11 10 9 8 8 7 5 3 2 4 5 7 8 9 9 10 7 6 4 4 3 4 4 4
5 5 7 9 7 9 7 4 7 9 9 7 9 7 9 8 7 8 9 10 11 11 11 11 10 8 7 6 5 4 5 5 6 7 8 8 6 5 5 5 7 7 6 7
7 4 6 7 6 7 6 6 7 9 10 11 9 8 7 5 7 8 8 9 10 10 11 11 11 11 10 9 8 7 8 7 6 7 7 8 9 8 9 8 8 7 6 7
6 6 5 5 7 8 10 10 9 11 11 8 6 5 7 8 9 9 9 9 9 10 11 11 12 12 12 12 11 10 11 11 10 10 10 10 10 10 10 9 9 8 7 7
4 4 3 2 6 6 9 12 9 7 9 7 8 5 8 10 11 11 10 9 10 11 11 12 12 12 12 13 13 12 13 13 13 13 13 12 12 10 9 11 10 10 8 9
5 1 2 0 3 7 7 9 7 8 6 5 7 9 8 9 10 10 10 10 10 10 11 12 13 13 13 14 14 14 15 15 15 15 15 15 14 13 14 13 12 10 9 9
5 4 0 1 5 4 5 4 5 9 7 7 8 9 9 12 11 10 9 10 10 10 11 12 12 13 13 13 14 15 16 16 16 15 14 13 15 14 14 13 14 12 11 10
5 5 2 3 1 0 4 5 6 7 7 7 7 5 6 12 12 12 10 10 10 10 11 11 11 12 13 14 14 15 15 16 15 15 15 15 14 14 14 13 13 12 11 10
3 5 1 2 3 2 2 2 4 6 6 7 4 7 6 9 12 13 12 11 11 11 11 11 12 12 13 14 14 14 14 15 14 14 14 14 13 13 13 13 12 11 10 9
3 4 4 6 6 3 1 2 4 6 5 6 6 8 7 10 12 12 13 12 11 12 12 12 12 12 12 13 13 14 13 13 13 13 14 13 13 13 12 11 10 10 9 9
5 3 4 3 4 3 2 4 3 6 5 4 1 9 9 10 11 11 12 12 12 12 12 12 12 12 11 12 12 13 13 12 12 13 13 13 12 11 11 10 9 9 8 8
4 1 4 5 5 5 6 7 6 5 5 4 3 7 8 9 11 11 12 13 13 12 12 12 12 11 11 11 11 11 12 11 11 12 12 12 11 10 10 9 9 8 7 7
1 1 3 5 4 5 8 9 7 7 7 5 5 7 8 9 10 10 11 13 13 13 13 13 12 12 11 10 10 11 11 10 10 11 11 10 10 9 9 8 8 7 7 6
0 2 3 2 3 4 4 8 7 6 7 5 4 5 8 8 8 9 11 12 13 13 13 13 11 11 10 9 9 10 10 10 10 10 9 9 9 9 8 7 7 7 6 6
2 3 3 1 3 0 6 4 4 4 7 7 7 7 8 8 8 8 9 12 13 13 13 12 10 10 9 9 9 9 9 9 9 9 9 8 8 7 7 6 6 5 5 5
3 4 3 2 1 5 5 3 4 3 4 6 6 8 10 11 11 8 8 11 12 12 12 11 10 10 9 9 9 9 9 8 8 8 8 7 6 6 6 6 5 5 4 4
2 2 3 2 2 2 5 5 3 3 3 5 5 8 9 7 5 6 10 13 13 12 10 10 9 9 9 8 8 9 8 8 8 7 7 6 5 5 6 5 4 4 3 3
1 0 2 2 1 6 6 4 4 3 5 4 4 6 6 4 7 12 13 13 13 12 11 10 10 8 8 7 8 8 8 7 7 6 5 5 4 4 4 4 3 3 3 4
4 2 2 2 1 5 5 2 4 5 5 5 5 7 11 14 16 15 14 13 13 13 12 11 9 8 7 7 7 7 7 6 5 5 4 4 3 2 3 3 2 2 2 2
2 5 4 5 6 7 5 5 5 4 6 7 8 11 15 15 15 14 13 13 12 12 10 9 10 9 8 7 6 7 6 5 4 3 3 3 3 2 2 2 2 1 2 3
5 1 2 5 7 6 6 6 6 6 8 9 11 13 15 15 15 14 13 12 11 11 10 9 9 9 8 6 6 5 5 3 2 2 2 2 1 1 2 1 2 3 4 4
4 4 3 5 8 7 6 7 8 9 11 12 12 13 14 16 15 14 12 11 10 10 9 8 8 8 8 7 6 5 4 2 2 1 1 1 1 2 1 2 4 5 7 7
4 3 2 2 8 6 8 9 10 11 12 13 14 13 13 13 14 13 12 11 10 10 9 8 8 7 7 6 6 4 3 1 0 1 0 0 1 1 1 2 4 5 4 3
Wind_Direction
200 230 229 226 235 272 263 244 209 171 144 181 153 105 64 59 67 72 74 75 80 75 71 83 128 166 171 174 177 180 183 179 180 182 181 179 178 175 169 163 159 189 211 219
213 231 244 243 235 243 239 233 216 190 162 187 139 105 83 65 63 56 57 61 59 59 59 59 67 113 161 171 175 178 181 178 182 180 178 172 162 163 152 118 90 72 89 167
251 286 179 227 218 226 231 237 226 199 179 186 170 145 115 91 76 66 57 54 53 49 49 49 49 54 86 147 173 182 183 180 180 170 164 154 147 144 147 134 110 58 44 55
255 245 227 235 230 232 230 226 237 227 224 197 215 190 137 119 93 69 56 50 48 47 48 46 44 42 43 49 125 153 168 169 169 168 169 165 161 161 147 129 112 78 56 60
244 237 237 242 241 235 249 240 233 230 235 224 210 223 140 144 115 80 60 52 46 44 45 44 40 40 39 42 59 86 108 125 141 150 153 149 142 134 123 117 104 85 66 60
268 248 259 266 251 234 238 226 220 228 225 222 211 223 147 134 117 96 72 59 51 48 47 46 43 44 43 45 52 64 78 82 93 106 114 124 127 129 120 113 102 87 72 63
228 211 213 251 238 205 222 223 208 203 211 206 177 207 97 89 99 101 86 67 57 53 50 48 45 45 45 47 53 61 72 71 75 81 84 94 104 108 105 102 94 89 76 66
253 192 163 233 256 230 217 234 242 230 209 171 172 147 102 99 101 99 91 80 67 59 57 55 52 52 52 53 57 63 68 70 70 74 76 77 83 87 87 85 87 83 78 73
316 24 111 260 264 266 220 230 264 276 254 205 143 117 123 126 117 109 100 89 77 69 63 61 58 57 58 60 61 66 72 72 71 73 75 75 77 82 85 85 83 82 82 80
309 294 89 177 219 204 277 256 237 244 234 217 166 172 163 160 146 128 114 102 94 83 73 67 64 62 63 66 68 70 73 76 76 76 77 79 78 80 82 84 85 84 82 80
302 278 220 198 255 264 211 217 250 254 267 257 197 136 114 156 151 137 122 112 105 95 86 79 75 73 73 73 73 73 75 77 77 78 80 81 81 83 84 84 84 84 82 80
333 289 270 108 76 332 313 310 269 260 242 262 273 98 84 135 136 131 122 114 108 100 95 90 86 82 80 79 79 79 80 81 82 83 83 84 84 85 85 84 85 86 85 81
322 275 242 171 166 154 84 4 301 278 263 256 254 113 98 117 120 121 121 118 112 107 102 96 90 86 84 84 84 83 83 85 87 90 90 89 89 88 88 88 89 89 88 85
286 308 328 7 41 38 63 30 336 286 269 264 301 120 131 130 128 126 124 121 117 111 107 103 97 93 91 90 89 89 88 89 90 91 91 89 89 89 91 91 89 87 86 85
283 42 72 72 76 77 60 39 31 22 356 342 67 117 134 140 138 134 132 127 122 118 114 110 106 102 97 94 92 91 90 90 92 94 93 93 94 93 93 91 89 88 84 81
335 134 133 118 115 102 71 43 39 43 29 38 83 86 102 113 125 130 134 133 128 125 122 117 113 110 105 103 101 99 97 97 97 95 95 96 96 95 93 92 90 84 76 69
286 237 246 158 172 210 77 31 27 41 32 19 44 83 115 115 121 133 136 136 134 132 127 122 118 114 112 111 111 108 106 105 100 98 98 97 96 92 91 90 85 78 72 65
324 284 278 214 211 145 79 49 30 54 59 53 78 100 111 111 106 109 128 131 130 127 124 123 121 117 116 117 116 114 112 109 107 104 100 97 94 89 84 80 75 66 58 51
345 301 297 285 170 112 118 63 3 352 73 65 98 112 112 114 101 84 101 114 119 121 121 122 122 123 123 121 119 115 111 110 108 105 103 100 96 91 81 71 63 53 45 40
98 293 288 300 309 70 78 37 347 272 123 91 111 128 136 147 130 111 115 114 114 114 116 118 121 123 122 122 124 120 115 111 107 107 106 103 93 80 70 63 51 50 40 35
327 21 4 355 50 84 49 348 276 282 78 111 124 137 144 115 96 117 118 115 116 118 119 121 120 119 123 130 129 122 117 110 108 109 106 100 91 81 69 61 51 36 34 40
335 349 35 317 358 81 35 341 17 57 93 108 110 114 111 106 111 118 119 120 123 125 127 127 125 125 132 136 135 127 117 112 112 111 106 96 84 70 75 61 48 27 7 35
5 13 21 27 53 77 60 60 71 99 112 112 114 116 120 121 123 124 124 125 126 127 129 134 135 134 137 140 139 125 120 123 122 118 99 89 88 72 47 26 28 20 9 5
125 134 129 121 114 110 99 95 93 96 110 116 120 124 126 126 128 129 128 129 130 133 139 142 141 140 137 138 132 122 125 125 124 113 106 112 109 100 79 352 7 11 15 14
121 165 162 131 130 133 123 110 107 105 112 117 120 125 130 131 133 133 133 134 136 141 142 142 141 139 138 138 133 134 135 140 118 110 128 152 103 67 61 61 36 10 42 28
164 182 216 115 150 154 135 129 127 124 123 125 125 125 129 132 134 134 133 135 137 138 138 139 140 137 137 141 138 137 145 158 167 182 225 318 48 60 2 106 123 83 43 86